STARLINK-32864, 62862

Orbit data source: Space-Track

STARLINK-32864, 62862 is a payload satellite owned by SpaceX/Seattle (US) in LEO that was launched on Sat, 01 Feb 2025 UTC via an FALCON 9 launch vehicle from the Air Force Western Test Range (AFWTR). Payload-class satellites include a variety of spacecraft equipped with specific instruments for various scientific and technological missions. These include communications satellites like Starlink; space stations such as the ISS; scientific satellites like the Hubble; Earth observation satellites from companies like Planet Labs, Umbra, and HawkEye 360; GPS; miniature CubeSats for education and research; and military/defense satellites.

Loading next visibility...
Identifier
62862, 2025-022J
Orbit
LEO
Country
Flag of USUS
Related business
Manufacturer
SpaceX/Seattle
Mission
Operational Commercial Communications
Bus & Motor
STARLINK V2M, Unknown motor
Mass
730 kg wet, ~700 kg dry
Launch date (UTC)
2025-02-01 (11 months ago)
Launch vehicle
FALCON 9
Launch site
Air Force Western Test Range (AFWTR)
Object type
Payload
Rocket body
Debris
Shape & HBR
Box + 2 Pan, 17.7 m
Radar Cross Section
33.884 m², Large (>1 m²)

Expand to show TLE details & history
Last TLE update: 1 day ago

TLE from 1 day ago
0 STARLINK-32864
1 62862U 25022J   25351.73615404  .00012018  00000-0  41725-3 0  9995
2 62862  53.1570 150.2002 0001092  88.9568 271.1558 15.30197490 49352
Epoch: 2025-12-17T17:40Z
TLE epoch observation values (Epoch: 2025-12-17T17:40:03.709Z)
Latitude
0.00001°
Longitude
158.58302°
Altitude
476.107 km
Speed
7.629 km/s
True Right ascension
10h 00m 48s
True Declination
0° 00' 00"
Sunlit
Object was in full shadow at epoch
Visualization orbit readout
Latitude
Unknown
Longitude
Unknown
Altitude
Unknown
Speed
Unknown
Apparent Right ascension
Unknown
Apparent Declination
Unknown
Sunlit
N/A
Visualization observer readout
Local Sidereal Time
18:08:02
Azimuth
Unknown
Elevation
Unknown
Doppler factor
Unknown
Orbital elements
Apogee altitude
476.228 km
Perigee altitude
474.731 km
Semi-major axis
6,853.616 km
Eccentricity
0.00011
Inclination
53.157°
RAAN
150.2002°
Arg. of periapsis
88.9568°
True anomaly
271.14329°
Mean anomaly
271.1558°
Eccentric anomaly
271.14954°
Mean motion
3.82528 °/min
Orbital period
94.11 mins
BSTAR
0.00041725
Loading maneuver chart data...
Computing Atmospheric mass density...
Loading historical data...
Loading historical data...
Loading historical data...
Loading historical data...
Loading historical data...
Loading historical data...
Loading historical data...

Documentation

Showing up to 5 results
|